Location: Fernhill
(41.0167°S, 175.6333°E)
Time: 12:15:58
(UTC+00:00)

NOSS 3-2 (A) - Pass Details

Date: 08 November 2025
Orbit: 666 x 1537 km, 63.4° (Epoch: 06 November)

Event Time Altitude Azimuth Distance (km) Brightness Sun altitude
Rises 07:44:11 0° 213° (SSW) 3,930 7.9 -7.2°
Reaches altitude 10° 07:47:18 10° 205° (SSW) 2,822 6.9 -7.7°
Maximum altitude 07:53:22 40° 136° (SE) 1,267 4.0 -8.7°
Enters shadow 07:58:04 12° 68° (ENE) 2,216 4.7 -9.5°
